Regional Weather Roundup
Issued by NWS Midland/Odessa, TX

Skip options and go directly to product.
Home | Oldest Version | Previous Version | Current Version | All | Graphics & Text | Save Text | Print | Product List | Glossary On

Skip product version selection by date and time.   
294
ASUS44 KMAF 031010
RWRMAF
MIDLAND AREA WEATHER ROUNDUP
NATIONAL WEATHER SERVICE MIDLAND TX
500 AM CDT MON AUG 03 2015

...IN SOUTHWEST TEXAS AND SOUTHEAST NEW MEXICO...

CITY           SKY/WX    TMP DP  RH WIND       PRES   REMARKS
ALPINE         PTCLDY    69  57  65 SW10      30.12S
ANDREWS        FAIR      73  65  77 SE5       29.98R
ARTESIA        MOCLDY    75  59  57 W7        30.00S
BIG SPRING     MOCLDY    75  60  58 S7        29.97R
CARLSBAD       CLOUDY    79  62  56 CALM      29.96S
DRYDEN           N/A     78  56  46 NW6       29.92R
FORT STOCKTON  PTCLDY    77  56  48 S13       29.95S
GUAD PASS      MOCLDY    70  57  63 CALM      30.14S
HOBBS            N/A    N/A N/A N/A MISG        N/A
MARFA          MOCLDY    66  61  82 N6        30.11S
MIDLAND AIRPK  CLOUDY    83  58  42 S9        29.96R
MIDLAND INTL   MOCLDY    81  59  47 S10       29.95R
ODESSA         MOCLDY    82  57  42 S15       29.97R
PECOS          PTCLDY    75  60  58 SW6       29.92S
PRESIDIO       FAIR      83  56  39 MISG      29.94R
SEMINOLE       PTCLDY    75  61  61 SE3       30.01R
SNYDER         MOCLDY    75  62  62 S5        29.95R
WINK           PTCLDY    76  63  64 SE7       29.93R
$$
...OTHER STATIONS IN TEXAS...

CITY           SKY/WX    TMP DP  RH WIND       PRES   REMARKS
ABILENE        MOCLDY    77  59  53 SE8       29.92R
AMARILLO       CLOUDY    67  65  93 S7        30.00S
AUSTIN         CLEAR     70  68  93 CALM      29.90R
BROWNSVILLE    PTCLDY    78  75  90 S5        29.85S
CORPUS CHRISTI PTCLDY    75  73  93 CALM      29.86S
DALLAS FTW     MOCLDY    80  60  50 S6        29.88R
DEL RIO        CLEAR     78  63  59 E6        29.87F
EL PASO        MOCLDY    73  63  70 SW3       30.00S
HOUSTON INT    CLEAR     76  72  87 CALM      29.88S
LUBBOCK        MOCLDY    73  64  73 NW10      30.01R
SAN ANGELO     CLEAR     78  59  51 S8        29.92S
SAN ANTONIO    PTCLDY    77  71  82 S3        29.92R
WACO           CLEAR     77  66  68 S6        29.89R
WICHITA FALLS  NOT AVBL
$$
...OTHER LOCATIONS IN NEW MEXICO...

CITY           SKY/WX    TMP DP  RH WIND       PRES   REMARKS
ALAMAGORDO     MOCLDY    77  55  47 N9        30.03S
ALBUQUERQUE    PTCLDY    65  60  84 W13       30.14R
CANNON AFB     CLOUDY    68  64  88 SE7       30.05S
CLOVIS         MOCLDY    66  63  88 SE6       30.06S
HOLLOMAN AFB   CLOUDY    71  62  74 NW14      30.02R
ROSWELL        MOCLDY    75  63  66 NW8       30.01R
RUIDOSO          N/A    N/A N/A N/A MISG        N/A
SANTA FE       MOCLDY    60  56  86 N8        30.19F
TRUTH OR CONSE CLOUDY    69  65  86 NW6       30.11S
TUCUMCARI      MOCLDY    68  66  93 CALM      30.05S
$$

USA.gov is the U.S. government's official web portal to all federal, state and local government web resources and services.